Wauseon, OH

9:48 PM EDT on July 24, 2016 (GMT -0400)
Fulton County

Weather History for KUSE - May, 2014

Change the Weather History Date:

Thursday, May 29, 2014

  Actual Average (KTOL) Record (KTOL)
Temperature  
Mean Temperature 67 °F 64 °F  
Max Temperature 77 °F 75 °F 93 °F (1962)
Min Temperature 57 °F 53 °F 33 °F (1966)
Degree Days  
Heating Degree Days 0 4  
Month to date heating degree days 201  
Since 1 July heating degree days 6103  
Cooling Degree Days 2 3  
Month to date cooling degree days 39  
Year to date cooling degree days 47  
Growing Degree Days 17 (Base 50)    
Moisture  
Dew Point 55 °F    
Average Humidity 68    
Maximum Humidity 94    
Minimum Humidity 47    
Precipitation  
Precipitation 0.00 in 0.12 in 1.11 in (1997)
Month to date precipitation 3.33  
Year to date precipitation 13.12  
Snow  
Snow 0.00 in 0.00 in - ()
Month to date snowfall 0.1  
Since 1 July snowfall 37.6  
Snow Depth -    
Sea Level Pressure  
Sea Level Pressure 30.11 in    
Wind  
Wind Speed 9 mph (ENE)    
Max Wind Speed 14 mph    
Max Gust Speed 20 mph    
Visibility 10 miles    
Events      
T = Trace of Precipitation, MM = Missing Value Source: NWS Daily Summary

Daily Weather History Graph

Daily Weather History Graph

Search for Another Location

Airport or City:

Trip Planner

Search our weather history database for the weather conditions in past years. The results will help you decide how hot, cold, wet, or windy it might be!

Date:

Astronomy

May. 29, 2014 Rise Set
Actual Time 6:06 AM EDT 9:02 PM EDT
Civil Twilight 5:33 AM EDT 9:35 PM EDT
Nautical Twilight 4:51 AM EDT 10:17 PM EDT
Astronomical Twilight 4:02 AM EDT 11:06 PM EDT
Moon 6:59 AM EDT (5/29) 9:50 PM EDT (5/29)
Length of Visible Light 16h 01m
Length of Day
14h 55m
New Moon, 1% of the Moon is Illuminated
May 29
New Moon
Jun 5
First Quarter
Jun 13
Full
Jun 19
Last Quarter
Jun 27
New

Hourly Weather History & Observations

Time (EDT) Temp. Dew Point Humidity Pressure Visibility Wind Dir Wind Speed Gust Speed Precip Events Conditions
12:15 AM 64.4 °F 51.8 °F 64% 30.08 in 10.0 mi East 11.5 mph - N/A   Overcast
12:35 AM 62.6 °F 51.8 °F 68% 30.08 in 10.0 mi ENE 11.5 mph - N/A   Overcast
12:55 AM 62.6 °F 51.8 °F 68% 30.08 in 10.0 mi East 9.2 mph - N/A   Mostly Cloudy
1:15 AM 62.6 °F 53.6 °F 72% 30.08 in 10.0 mi East 9.2 mph - N/A   Mostly Cloudy
1:20 AM 62.6 °F 53.6 °F 72% 30.08 in 10.0 mi East 8.1 mph - N/A   Overcast
1:55 AM 62.6 °F 55.4 °F 77% 30.08 in 10.0 mi ENE 9.2 mph - N/A   Overcast
2:15 AM 60.8 °F 55.4 °F 82% 30.07 in 10.0 mi ENE 9.2 mph - N/A   Overcast
2:35 AM 60.8 °F 55.4 °F 82% 30.07 in 10.0 mi ENE 9.2 mph - N/A   Scattered Clouds
2:55 AM 60.8 °F 55.4 °F 82% 30.07 in 10.0 mi ENE 6.9 mph - N/A   Mostly Cloudy
3:15 AM 60.8 °F 55.4 °F 82% 30.07 in 10.0 mi ENE 6.9 mph - N/A   Overcast
3:35 AM 60.8 °F 57.2 °F 88% 30.07 in 10.0 mi ENE 5.8 mph - N/A   Overcast
3:55 AM 59.0 °F 55.4 °F 88% 30.06 in 10.0 mi NNE 8.1 mph - N/A   Scattered Clouds
4:15 AM 59.0 °F 55.4 °F 88% 30.07 in 10.0 mi NE 5.8 mph - N/A   Clear
4:35 AM 59.0 °F 55.4 °F 88% 30.07 in 10.0 mi NE 4.6 mph - N/A   Clear
5:15 AM 57.2 °F 55.4 °F 94% 30.07 in 10.0 mi NE 4.6 mph - N/A   Clear
5:35 AM 57.2 °F 55.4 °F 94% 30.07 in 10.0 mi NE 4.6 mph - N/A   Clear
5:55 AM 57.2 °F 55.4 °F 94% 30.08 in 10.0 mi NNE 6.9 mph - N/A   Clear
6:15 AM 57.2 °F 55.4 °F 94% 30.09 in 10.0 mi NE 8.1 mph - N/A   Partly Cloudy
6:35 AM 57.2 °F 55.4 °F 94% 30.09 in 10.0 mi NE 9.2 mph - N/A   Clear
6:55 AM 57.2 °F 55.4 °F 94% 30.10 in 10.0 mi NE 8.1 mph - N/A   Clear
7:15 AM 57.2 °F 55.4 °F 94% 30.10 in 10.0 mi NE 10.4 mph - N/A   Clear
8:15 AM 60.8 °F 55.4 °F 82% 30.11 in 10.0 mi ENE 10.4 mph - N/A   Clear
8:35 AM 60.8 °F 55.4 °F 82% 30.12 in 10.0 mi ENE 10.4 mph - N/A   Clear
8:55 AM 62.6 °F 55.4 °F 77% 30.12 in 10.0 mi NE 12.7 mph - N/A   Clear
9:15 AM 62.6 °F 55.4 °F 77% 30.13 in 10.0 mi ENE 9.2 mph - N/A   Partly Cloudy
9:35 AM 64.4 °F 55.4 °F 73% 30.14 in 10.0 mi ENE 10.4 mph - N/A   Clear
9:55 AM 66.2 °F 55.4 °F 68% 30.14 in 10.0 mi ENE 8.1 mph - N/A   Clear
10:15 AM 66.2 °F 55.4 °F 68% 30.14 in 10.0 mi ENE 9.2 mph - N/A   Clear
10:35 AM 66.2 °F 55.4 °F 68% 30.13 in 10.0 mi ENE 10.4 mph - N/A   Clear
10:55 AM 68.0 °F 55.4 °F 64% 30.13 in 10.0 mi East 8.1 mph 16.1 mph N/A   Clear
11:15 AM 69.8 °F 55.4 °F 60% 30.14 in 10.0 mi ENE 8.1 mph 15.0 mph N/A   Clear
11:35 AM 71.6 °F 55.4 °F 57% 30.14 in 10.0 mi ENE 11.5 mph - N/A   Clear
11:55 AM 71.6 °F 55.4 °F 57% 30.14 in 10.0 mi East 11.5 mph - N/A   Clear
12:15 PM 71.6 °F 55.4 °F 57% 30.13 in 10.0 mi ENE 13.8 mph - N/A   Clear
12:35 PM 73.4 °F 55.4 °F 53% 30.14 in 10.0 mi East 9.2 mph - N/A   Clear
12:55 PM 73.4 °F 57.2 °F 57% 30.13 in 10.0 mi East 10.4 mph - N/A   Clear
1:15 PM 75.2 °F 57.2 °F 53% 30.13 in 10.0 mi ESE 10.4 mph - N/A   Clear
1:35 PM 73.4 °F 57.2 °F 57% 30.13 in 10.0 mi ESE 9.2 mph - N/A   Clear
2:15 PM 75.2 °F 55.4 °F 50% 30.12 in 10.0 mi NE 8.1 mph 16.1 mph N/A   Partly Cloudy
2:35 PM 75.2 °F 55.4 °F 50% 30.12 in 10.0 mi NE 8.1 mph 17.3 mph N/A   Partly Cloudy
2:55 PM 75.2 °F 55.4 °F 50% 30.12 in 10.0 mi East 9.2 mph 16.1 mph N/A   Scattered Clouds
3:15 PM 77.0 °F 55.4 °F 47% 30.12 in 9.0 mi ENE 11.5 mph - N/A   Partly Cloudy
3:35 PM 75.2 °F 55.4 °F 50% 30.10 in 10.0 mi ESE 6.9 mph 13.8 mph N/A   Partly Cloudy
3:55 PM 77.0 °F 55.4 °F 47% 30.09 in 10.0 mi ESE 5.8 mph 15.0 mph N/A   Clear
4:15 PM 77.0 °F 55.4 °F 47% 30.08 in 10.0 mi ESE 8.1 mph 13.8 mph N/A   Clear
4:35 PM 77.0 °F 55.4 °F 47% 30.09 in 10.0 mi ESE 5.8 mph 18.4 mph N/A   Clear
4:55 PM 77.0 °F 57.2 °F 50% 30.09 in 10.0 mi East 12.7 mph - N/A   Partly Cloudy
5:15 PM 75.2 °F 57.2 °F 53% 30.09 in 10.0 mi ESE 11.5 mph 19.6 mph N/A   Partly Cloudy
5:35 PM 75.2 °F 57.2 °F 53% 30.08 in 10.0 mi East 12.7 mph - N/A   Partly Cloudy
5:55 PM 75.2 °F 57.2 °F 53% 30.08 in 10.0 mi East 13.8 mph - N/A   Clear
6:15 PM 75.2 °F 55.4 °F 50% 30.09 in 10.0 mi East 12.7 mph - N/A   Clear
6:35 PM 75.2 °F 55.4 °F 50% 30.09 in 10.0 mi East 6.9 mph 15.0 mph N/A   Clear
6:55 PM 73.4 °F 55.4 °F 53% 30.09 in 10.0 mi ESE 12.7 mph - N/A   Clear
7:15 PM 73.4 °F 55.4 °F 53% 30.10 in 10.0 mi East 11.5 mph - N/A   Clear
7:35 PM 73.4 °F 55.4 °F 53% 30.10 in 10.0 mi ESE 6.9 mph - N/A   Clear
7:55 PM 71.6 °F 55.4 °F 57% 30.11 in 10.0 mi East 11.5 mph - N/A   Clear
8:15 PM 71.6 °F 55.4 °F 57% 30.11 in 10.0 mi East 10.4 mph - N/A   Clear
8:35 PM 69.8 °F 55.4 °F 60% 30.11 in 10.0 mi East 9.2 mph - N/A   Clear
8:55 PM 68.0 °F 55.4 °F 64% 30.11 in 10.0 mi East 8.1 mph 13.8 mph N/A   Clear
9:15 PM 68.0 °F 55.4 °F 64% 30.12 in 10.0 mi East 9.2 mph - N/A   Clear
9:35 PM 66.2 °F 53.6 °F 64% 30.13 in 10.0 mi East 8.1 mph - N/A   Clear
9:55 PM 64.4 °F 53.6 °F 68% 30.13 in 10.0 mi East 6.9 mph - N/A   Clear
10:15 PM 62.6 °F 53.6 °F 72% 30.14 in 10.0 mi East 5.8 mph - N/A   Clear
10:35 PM 62.6 °F 53.6 °F 72% 30.15 in 10.0 mi East 3.5 mph - N/A   Clear
10:55 PM 62.6 °F 53.6 °F 72% 30.15 in 10.0 mi East 4.6 mph - N/A   Clear
11:15 PM 60.8 °F 53.6 °F 77% 30.15 in 10.0 mi East 4.6 mph - N/A   Clear
11:35 PM 59.0 °F 53.6 °F 82% 30.15 in 10.0 mi ENE 4.6 mph - N/A   Clear
11:55 PM 59.0 °F 53.6 °F 82% 30.15 in 10.0 mi ENE 5.8 mph - N/A   Clear